Location: ?????
(31.8092°N, 35.2590°E)
Time: 03:32:58
(UTC+00:00)

Lacrosse 5 - Pass Details

Date: 28 October 2021
Orbit: 714 x 724 km, 57.0° (Epoch: 28 August)

Event Time Altitude Azimuth Distance (km) Brightness Sun altitude
Rises 15:29:34 0° 189° (S) 3,118 5.4 -8.4°
Reaches altitude 10° 15:32:13 10° 178° (S) 2,202 4.5 -9.0°
Maximum altitude 15:36:30 28° 120° (ESE) 1,342 2.9 -9.9°
Enters shadow 15:40:07 13° 67° (ENE) 2,002 3.5 -10.6°
